Watonga, OK

2:38 PM CST on December 04, 2016 (GMT -0600)
Watonga

Weather History for KJWG - November, 2013

Change the Weather History Date:

Thursday, November 7, 2013

  Actual Average Record
Temperature  
Mean Temperature 50 °F -  
Max Temperature 64 °F 62 °F 86 °F (1980)
Min Temperature 35 °F 38 °F 20 °F (1991)
Degree Days  
Heating Degree Days 16    
Moisture  
Dew Point 38 °F    
Average Humidity 69    
Maximum Humidity 100    
Minimum Humidity 39    
Precipitation  
Precipitation 0.00 in - - ()
Sea Level Pressure  
Sea Level Pressure 30.40 in    
Wind  
Wind Speed 4 mph (South)    
Max Wind Speed 13 mph    
Max Gust Speed -    
Visibility 10 miles    
Events      
Averages and records for this station are not official NWS values.
T = Trace of Precipitation, MM = Missing Value Source: NWS Daily Summary

Daily Weather History Graph

Daily Weather History Graph

Search for Another Location

Airport or City:

Trip Planner

Search our weather history database for the weather conditions in past years. The results will help you decide how hot, cold, wet, or windy it might be!

Date:

Astronomy

Nov. 07, 2013 Rise Set
Actual Time 7:02 AM CST 5:32 PM CST
Civil Twilight 6:35 AM CST 5:58 PM CST
Nautical Twilight 6:04 AM CST 6:29 PM CST
Astronomical Twilight 5:34 AM CST 6:59 PM CST
Moon 11:10 AM CST (11/7) 9:46 PM CST (11/7)
Length of Visible Light 11h 23m
Length of Day
10h 30m
Waxing Crescent, 23% of the Moon is Illuminated
Nov 7
Waxing Crescent
Nov 9
First Quarter
Nov 17
Full
Nov 25
Last Quarter
Dec 2
New

Hourly Weather History & Observations

Time (CST) Temp. Windchill Dew Point Humidity Pressure Visibility Wind Dir Wind Speed Gust Speed Precip Events Conditions
12:15 AM 37.0 °F - 37.0 °F 100% 30.39 in 10.0 mi Calm Calm - N/A   Clear
12:35 AM 37.2 °F - 37.2 °F 100% 30.40 in 10.0 mi Calm Calm - N/A   Clear
12:55 AM 37.4 °F - 36.9 °F 98% 30.39 in 10.0 mi Calm Calm - N/A   Clear
1:15 AM 36.3 °F - 36.3 °F 100% 30.40 in 10.0 mi Calm Calm - N/A   Clear
1:55 AM 36.7 °F - 36.0 °F 97% 30.39 in 10.0 mi Calm Calm - N/A   Clear
2:15 AM 36.1 °F - 36.1 °F 100% 30.39 in 10.0 mi Calm Calm - N/A   Clear
2:35 AM 35.6 °F - 35.6 °F 100% 30.40 in 10.0 mi Calm Calm - N/A   Clear
2:55 AM 36.0 °F 33.3 °F 36.0 °F 100% 30.40 in 10.0 mi SSW 3.5 mph - N/A   Clear
3:15 AM 39.2 °F 34.2 °F 35.6 °F 87% 30.40 in 10.0 mi SW 6.9 mph - N/A   Clear
3:35 AM 37.2 °F 31.9 °F 34.5 °F 90% 30.40 in 10.0 mi SW 6.9 mph - N/A   Clear
3:55 AM 37.0 °F 31.6 °F 34.2 °F 89% 30.40 in 10.0 mi WNW 6.9 mph - N/A   Clear
4:15 AM 37.2 °F 31.2 °F 34.5 °F 90% 30.41 in 10.0 mi West 8.1 mph - N/A   Clear
4:35 AM 37.6 °F 32.3 °F 34.0 °F 87% 30.41 in 10.0 mi West 6.9 mph - N/A   Clear
4:55 AM 37.4 °F 32.1 °F 33.8 °F 87% 30.42 in 10.0 mi SW 6.9 mph - N/A   Clear
5:15 AM 36.9 °F 31.4 °F 34.2 °F 90% 30.42 in 10.0 mi WNW 6.9 mph - N/A   Clear
5:35 AM 36.9 °F 31.4 °F 34.0 °F 89% 30.42 in 10.0 mi WNW 6.9 mph - N/A   Clear
5:55 AM 37.9 °F 32.7 °F 33.6 °F 84% 30.42 in 10.0 mi SW 6.9 mph - N/A   Clear
6:15 AM 36.9 °F 34.3 °F 33.4 °F 87% 30.43 in 10.0 mi West 3.5 mph - N/A   Clear
6:35 AM 37.2 °F 34.7 °F 33.4 °F 86% 30.43 in 10.0 mi West 3.5 mph - N/A   Clear
6:55 AM 38.1 °F 35.7 °F 33.6 °F 84% 30.43 in 10.0 mi SW 3.5 mph - N/A   Clear
7:15 AM 39.2 °F 35.9 °F 34.3 °F 83% 30.43 in 10.0 mi SSW 4.6 mph - N/A   Clear
7:35 AM 38.7 °F 34.3 °F 34.7 °F 86% 30.44 in 10.0 mi SSW 5.8 mph - N/A   Clear
7:55 AM 40.8 °F 37.8 °F 35.6 °F 82% 30.44 in 10.0 mi SSW 4.6 mph - N/A   Clear
8:15 AM 44.6 °F 40.2 °F 36.9 °F 74% 30.45 in 10.0 mi SSW 8.1 mph - N/A   Clear
8:35 AM 45.5 °F 39.6 °F 37.0 °F 72% 30.46 in 10.0 mi SSW 12.7 mph - N/A   Clear
8:55 AM 46.4 °F 41.9 °F 38.3 °F 73% 30.47 in 10.0 mi SSW 9.2 mph - N/A   Clear
9:15 AM 48.4 °F - 39.6 °F 72% 30.46 in 10.0 mi SW 9.2 mph - N/A   Clear
9:35 AM 50.4 °F - 39.7 °F 67% 30.47 in 10.0 mi SSW 9.2 mph - N/A   Clear
9:55 AM 51.8 °F - 39.7 °F 63% 30.47 in 10.0 mi SSW 10.4 mph - N/A   Clear
10:15 AM 53.4 °F - 40.6 °F 62% 30.47 in 10.0 mi WSW 6.9 mph - N/A   Clear
10:35 AM 54.7 °F - 40.8 °F 60% 30.47 in 10.0 mi West 11.5 mph - N/A   Clear
10:55 AM 55.6 °F - 40.5 °F 57% 30.47 in 10.0 mi SSW 10.4 mph - N/A   Clear
11:15 AM 56.8 °F - 40.5 °F 54% 30.47 in 10.0 mi SSW 8.1 mph - N/A   Clear
11:35 AM 57.7 °F - 40.1 °F 52% 30.47 in 10.0 mi SW 8.1 mph - N/A   Clear
11:55 AM 58.6 °F - 41.9 °F 54% 30.46 in 10.0 mi NNW 6.9 mph - N/A   Clear
12:15 PM 59.0 °F - 41.0 °F 51% 30.45 in 10.0 mi WNW 6.9 mph - N/A   Clear
12:35 PM 60.3 °F - 41.4 °F 50% 30.44 in 10.0 mi West 4.6 mph - N/A   Clear
12:55 PM 60.8 °F - 40.6 °F 47% 30.43 in 10.0 mi NW 8.1 mph - N/A   Clear
1:15 PM 61.7 °F - 41.2 °F 47% 30.42 in 10.0 mi NW 8.1 mph - N/A   Clear
1:35 PM 62.4 °F - 42.4 °F 48% 30.41 in 10.0 mi NNE 8.1 mph - N/A   Clear
1:55 PM 62.6 °F - 41.4 °F 46% 30.40 in 10.0 mi WNW 5.8 mph - N/A   Clear
2:15 PM 63.0 °F - 40.6 °F 44% 30.39 in 10.0 mi NNE 5.8 mph - N/A   Clear
2:35 PM 63.5 °F - 40.1 °F 42% 30.39 in 10.0 mi NE 4.6 mph - N/A   Clear
2:55 PM 63.9 °F - 39.4 °F 41% 30.38 in 10.0 mi North 3.5 mph - N/A   Clear
3:15 PM 64.0 °F - 39.0 °F 40% 30.37 in 10.0 mi North 4.6 mph - N/A   Clear
3:35 PM 64.0 °F - 39.4 °F 40% 30.37 in 10.0 mi ENE 6.9 mph - N/A   Clear
3:55 PM 64.2 °F - 39.0 °F 39% 30.37 in 10.0 mi ESE 4.6 mph - N/A   Clear
4:55 PM 61.5 °F - 40.8 °F 47% 30.37 in 10.0 mi East 5.8 mph - N/A   Clear
5:15 PM 59.7 °F - 40.6 °F 49% 30.37 in 10.0 mi ESE 4.6 mph - N/A   Clear
5:35 PM 58.3 °F - 40.3 °F 51% 30.37 in 10.0 mi East 5.8 mph - N/A   Clear
5:55 PM 56.1 °F - 40.3 °F 55% 30.37 in 10.0 mi ESE 4.6 mph - N/A   Clear
6:15 PM 55.6 °F - 40.1 °F 56% 30.37 in 10.0 mi SE 4.6 mph - N/A   Clear
6:35 PM 54.1 °F - 40.3 °F 59% 30.37 in 10.0 mi ESE 3.5 mph - N/A   Clear
6:55 PM 53.4 °F - 40.1 °F 61% 30.37 in 10.0 mi ESE 3.5 mph - N/A   Clear
7:15 PM 52.0 °F - 39.9 °F 63% 30.37 in 10.0 mi East 4.6 mph - N/A   Clear
7:35 PM 51.8 °F - 39.4 °F 63% 30.37 in 10.0 mi East 4.6 mph - N/A   Clear
7:55 PM 51.1 °F - 39.2 °F 64% 30.36 in 10.0 mi East 3.5 mph - N/A   Clear
8:15 PM 50.2 °F - 39.0 °F 66% 30.36 in 10.0 mi East 3.5 mph - N/A   Clear
8:35 PM 49.1 °F - 38.8 °F 68% 30.36 in 10.0 mi East 4.6 mph - N/A   Clear
8:55 PM 49.3 °F - 38.8 °F 67% 30.36 in 10.0 mi East 3.5 mph - N/A   Clear
9:15 PM 47.3 °F - 39.0 °F 73% 30.36 in 10.0 mi East 4.6 mph - N/A   Clear
9:35 PM 47.8 °F - 38.5 °F 70% 30.35 in 10.0 mi East 4.6 mph - N/A   Clear
9:55 PM 47.8 °F - 38.5 °F 70% 30.35 in 10.0 mi ESE 5.8 mph - N/A   Clear
10:15 PM 48.7 °F - 38.3 °F 67% 30.35 in 10.0 mi ESE 5.8 mph - N/A   Clear
10:35 PM 48.2 °F - 37.9 °F 68% 30.34 in 10.0 mi SE 4.6 mph - N/A   Clear
10:55 PM 48.6 °F - 37.4 °F 65% 30.34 in 10.0 mi SE 5.8 mph - N/A   Clear
11:15 PM 48.2 °F - 37.0 °F 65% 30.33 in 10.0 mi ESE 5.8 mph - N/A   Clear
11:35 PM 47.3 °F - 37.0 °F 68% 30.33 in 10.0 mi ESE 6.9 mph - N/A   Clear
11:55 PM 46.4 °F 43.5 °F 36.7 °F 69% 30.32 in 10.0 mi SE 5.8 mph - N/A   Clear